Location: *
(48.8780°N, 19.2358°E)
Time: 07:00:13
(UTC+00:00)

STARLINK-44 - Pass Details

Date: 18 October 2019
Orbit: 548 x 551 km, 53.0° (Epoch: 16 November)

Event Time Altitude Azimuth Distance (km) Brightness Sun altitude
Rises 16:53:17 0° 260° (W) 2,713 9.2 -11.4°
Reaches altitude 10° 16:55:32 10° 264° (W) 1,822 7.8 -11.8°
Maximum altitude 16:59:38 59° 344° (NNW) 638 4.0 -12.4°
Enters shadow 17:02:41 17° 62° (ENE) 1,425 5.2 -12.9°
